SCP
0 0 0 0 0 0 0 0 0 0 0 0 0 0 0 0 0 0 0 0 0 0 0 0 0 0 0 0 0 0 0 0 0 0 0 0 0 0 0 0 0 0 0 0
0 0 0 0 0 0 0 0 0 0 0 0 0 0 0 0 0 0 0 0 0 0 0 0 0 0 0 0 0 0 0 0 0 0 0 0 0 0 0 0 0 0 0 0
0 0 0 0 0 0 0 0 0 0 0 0 0 0 0 0 0 0 0 0 0 0 0 0 0 0 0 0 0 0 0 0 0 0 0 0 0 0 0 0 0 0 0 0
0 0 0 0 0 0 0 0 0 0 0 0 0 -0 0 0 0 0 0 0 0 0 0 0 0 0 0 0 0 0 0 0 0 0 0 0 0 0 0 0 0 0 0 0
0 0 0 0 0 0 0 0 0 0 0 0 0 0 0 0 0 0 0 0 0 0 0 0 0 0 0 0 0 0 0 0 0 0 0 0 0 0 0 0 0 0 0 0
0 0 0 0 0 0 0 0 0 0 0 0 0 0 0 0 0 0 0 0 0 0 0 0 0 0 0 0 0 0 0 0 0 0 0 0 0 0 0 0 0 0 0 0
0 0 0 0 0 0 0 0 0 0 0 0 0 0 0 0 0 0 0 0 0 0 0 0 0 0 0 0 0 0 0 0 0 0 0 0 0 0 0 0 0 0 0 0
0 0 0 0 0 0 0 0 0 0 0 -0 0 0 0 0 0 0 0 0 0 0 0 0 0 0 0 0 0 0 0 0 0 0 0 0 0 0 0 0 0 0 0 0
0 0 0 0 0 0 0 0 0 0 0 0 0 0 0 0 0 0 0 0 0 0 0 0 0 0 0 0 0 0 0 0 0 0 0 0 0 0 0 0 0 0 0 0
0 0 0 0 0 0 0 0 0 0 0 0 -0 0 0 0 0 0 0 0 0 0 0 0 0 0 0 0 0 0 0 0 0 0 0 0 0 0 0 0 0 0 0 0
0 0 0 0 0 0 0 0 0 0 0 0 0 0 0 0 0 0 0 0 0 0 0 0 0 0 0 0 0 0 0 0 0 0 0 0 0 0 0 0 0 0 0 0
0 0 0 0 0 0 0 0 0 0 0 0 0 -0 0 0 0 0 0 0 0 0 0 0 0 0 0 0 0 0 0 0 0 0 0 0 0 0 0 0 0 0 0 0
0 0 0 0 0 0 0 0 0 0 0 0 0 0 0 0 0 0 0 0 0 0 0 0 0 0 0 0 0 0 0 0 0 0 0 0 0 0 0 0 0 0 0 0
0 0 0 0 0 0 0 0 0 0 0 0 0 0 0 0 0 0 0 0 0 0 0 0 0 0 0 0 0 0 0 0 0 0 0 0 0 0 0 0 0 0 0 0
0 0 0 0 0 0 0 0 0 0 0 0 0 0 0 0 0 0 0 0 0 0 0 0 0 0 0 0 0 0 0 0 0 0 0 0 0 0 0 0 0 0 0 0
0 0 0 0 0 0 0 0 0 0 0 0 0 0 0 0 0 0 0 0 0 0 0 0 0 0 0 0 0 0 0 0 0 0 0 0 0 0 0 0 0 0 0 0
0 0 0 0 0 0 0 0 0 0 0 0 0 0 0 0 0 0 0 0 0 0 0 0 0 0 0 0 0 0 0 0 0 0 0 0 0 0 0 0 0 0 0 0
0 0 0 0 0 0 0 0 0 0 0 0 0 0 0 0 0 0 0 0 0 0 0 0 0 0 0 0 0 0 0 0 0 0 0 0 0 0 0 0 0 0 0 0
0 0 0 0 0 0 0 0 0 0 0 0 0 0 0 0 0 0 0 0 0 0 0 0 0 0 0 0 0 0 0 0 0 0 0 0 0 0 0 0 0 0 0 0
0 0 0 0 0 0 0 0 0 0 0 0 0 0 0 0 0 0 0 0 0 0 0 0 0 0 0 0 0 0 0 0 0 0 0 0 0 0 0 0 0 0 0 0
0 0 0 0 0 0 0 0 0 0 0 0 0 0 0 0 0 0 0 0 0 0 0 0 0 0 0 0 0 0 0 0 0 0 0 0 0 0 0 0 0 0 0 0
0 0 0 0 0 0 0 0 0 0 0 0 0 0 0 0 0 0 0 0 0 0 0 0 0 0 0 0 0 0 0 0 0 0 0 0 0 0 0 0 0 0 0 0
0 0 0 0 0 0 0 0 0 0 0 0 0 0 0 0 0 -0 0 0 0 0 0 0 0 0 0 0 0 0 0 0 0 0 0 0 0 0 0 0 0 0 0 0
0 0 0 0 0 0 0 0 0 0 0 0 0 0 0 0 0 0 0 0 0 0 0 0 0 0 0 0 0 0 0 0 0 0 0 0 0 0 0 0 0 0 0 0
-0 -0 -0 -0 0 0 0 0 0 0 0 0 0 0 0 0 0 0 0 0 0 0 0 0 0 0 0 0 0 0 0 0 0 0 0 0 0 0 0 0 0 0 0 0
-0 -0 -0 -0 -0 -0 -0 -0 -0 -0 -0 0 0 -0 0 0 0 0 0 0 0 0 0 0 0 0 0 0 0 0 0 0 0 0 0 0 0 0 0 0 0 0 0 0
Wind_Speed_500mb
22 18 32 38 39 44 45 42 45 51 15 21 38 43 49 59 53 60 67 67 65 64 55 54 56 61 65 65 68 72 72 72 72 70 65 59 57 53 48 42 38 36 35 34
13 34 43 37 27 32 39 43 51 45 13 14 34 44 44 44 56 69 65 65 60 47 44 49 52 62 76 73 75 74 72 74 76 74 68 64 59 57 52 48 43 41 39 38
44 35 3 10 29 31 39 42 45 42 16 24 27 32 31 27 45 53 58 73 59 49 43 49 59 65 70 76 77 79 79 80 82 78 73 69 63 58 55 53 50 45 41 39
37 42 40 39 41 35 41 33 37 37 22 23 5 28 24 30 34 29 49 70 51 37 36 41 52 62 68 70 70 72 78 83 83 81 81 75 69 64 58 55 52 47 42 39
24 16 15 28 46 23 25 7 9 18 26 33 28 27 29 15 19 25 34 67 53 27 32 41 55 58 58 60 64 70 77 85 87 86 83 78 73 67 61 60 54 48 43 41
37 5 9 11 5 7 9 7 10 9 14 22 33 36 16 16 9 9 24 58 23 22 21 32 40 46 52 58 63 71 76 85 85 87 85 83 78 72 68 63 56 50 44 44
23 46 12 10 13 8 16 12 11 16 15 35 27 27 31 18 26 28 42 61 16 14 22 35 43 47 51 60 62 66 69 78 82 85 89 88 83 76 71 64 58 50 47 45
15 19 36 28 36 12 28 22 12 26 30 50 5 28 22 25 34 44 54 36 26 23 27 36 41 43 51 58 62 58 62 70 80 82 90 91 87 82 74 66 56 53 49 43
16 24 7 11 4 12 17 14 6 17 1 18 28 41 31 14 21 33 19 25 39 32 37 44 47 49 54 58 62 58 61 63 74 82 88 95 90 86 76 65 58 52 45 45
17 27 16 11 7 7 11 4 9 8 13 33 55 44 28 31 35 23 16 24 46 27 35 39 47 50 54 58 61 67 66 64 68 80 91 95 93 83 73 66 58 49 47 46
19 17 12 12 22 29 11 13 12 6 15 22 38 23 13 16 11 17 16 26 34 19 25 28 41 49 55 63 69 71 65 70 72 81 92 96 92 82 74 67 55 49 48 46
15 6 23 46 9 7 16 42 37 19 27 17 27 55 14 2 7 8 13 20 20 20 25 42 55 48 58 72 75 75 71 73 76 83 91 97 94 83 76 64 55 51 47 46
14 6 10 23 17 7 15 25 23 34 29 52 33 47 26 36 29 9 16 29 35 43 54 68 61 64 71 76 79 81 79 77 78 86 92 95 91 84 73 62 56 49 46 45
26 15 25 40 45 10 23 39 34 38 33 51 53 57 79 61 54 53 56 72 61 65 63 68 59 74 80 84 88 85 83 78 80 91 96 98 90 81 70 60 53 48 46 45
5 34 41 55 66 67 54 37 29 49 54 43 64 45 53 61 60 58 65 86 82 87 78 68 70 79 84 86 89 85 81 81 87 94 98 93 87 78 67 57 51 47 45 44
15 22 37 48 59 61 59 53 64 59 50 58 57 63 59 80 102 78 92 93 73 86 75 75 74 75 81 89 90 86 86 88 92 94 92 90 88 74 62 56 50 47 44 40
14 15 22 38 49 48 42 72 68 70 80 67 60 78 79 74 61 60 88 74 71 72 78 80 78 74 74 81 87 87 84 86 90 86 86 90 81 69 61 56 51 45 39 36
22 38 22 18 18 36 43 43 60 72 73 74 59 61 65 62 86 67 89 66 79 72 85 84 73 65 67 63 69 73 76 85 87 87 89 89 81 72 63 56 49 42 35 34
46 36 21 17 33 33 21 44 45 41 66 51 57 68 69 84 63 66 95 67 72 80 72 60 55 55 53 50 53 65 72 75 79 85 91 90 77 68 60 53 46 37 33 29
59 45 35 22 19 35 37 54 50 42 25 44 51 53 53 46 22 34 81 49 53 56 51 38 38 37 37 42 42 55 68 76 78 84 92 82 73 64 55 46 38 33 28 25
19 29 46 44 40 24 25 30 24 44 38 62 63 58 55 41 45 71 47 41 43 39 39 43 44 42 42 45 49 52 63 69 71 83 84 77 68 59 50 42 36 29 23 23
42 22 24 25 34 45 28 44 53 51 56 55 59 64 52 66 68 69 72 67 64 54 44 50 53 54 54 54 58 65 70 72 78 89 83 72 64 56 47 41 33 25 20 23
46 42 36 36 30 20 21 41 71 82 79 80 78 78 65 52 51 47 55 59 62 61 55 58 60 60 59 61 64 72 74 77 88 90 80 71 62 53 47 39 32 23 19 19
13 27 15 29 20 36 61 73 59 72 57 53 54 56 52 50 62 71 70 73 69 73 75 72 66 67 67 65 70 74 81 81 96 92 81 71 62 52 44 36 27 18 15 14
31 39 42 50 38 47 50 57 58 55 63 70 79 70 62 61 69 77 85 95 89 81 83 77 72 72 74 71 78 85 81 93 95 89 81 71 60 53 43 33 25 20 17 9
37 45 37 41 55 43 49 61 61 60 60 60 62 68 75 74 75 80 74 83 82 88 93 96 79 76 79 80 90 91 91 99 96 89 80 68 62 52 44 34 28 20 13 2
Wind_Direction_500mb
201 222 231 238 230 251 275 282 278 273 266 213 241 253 264 277 276 274 271 273 264 258 254 235 226 218 214 212 213 220 220 221 224 225 226 228 232 234 236 239 247 259 271 280
206 232 249 270 286 272 263 263 269 275 273 209 267 267 267 271 268 267 274 273 268 268 245 227 218 212 215 216 221 221 221 222 226 228 229 231 233 233 235 238 246 256 267 277
239 250 82 253 251 251 249 252 261 263 273 220 273 272 258 248 253 261 268 266 270 263 246 219 211 209 214 217 223 223 225 227 229 229 227 228 230 232 234 238 245 254 264 278
254 262 265 265 255 256 262 268 253 266 273 265 157 285 273 286 267 240 266 276 272 259 233 217 207 209 217 220 223 228 228 229 230 229 229 230 234 234 236 238 242 252 267 279
227 226 218 232 245 255 250 341 258 253 256 277 263 269 271 224 265 250 247 262 276 279 226 216 220 219 219 219 223 228 228 229 231 231 231 231 230 231 231 237 242 253 264 276
256 105 233 244 109 224 114 255 243 232 260 253 253 239 281 234 205 238 256 263 255 258 229 209 212 214 213 220 222 229 230 231 231 233 231 231 231 230 232 236 242 251 264 273
225 227 199 177 204 171 201 212 270 248 228 262 270 263 265 278 254 239 257 265 274 230 206 201 203 210 215 218 222 228 230 232 235 234 230 229 230 231 233 236 241 250 258 268
238 245 198 191 218 250 197 215 220 273 270 284 240 265 255 250 239 239 251 258 252 226 220 218 214 222 225 223 221 222 228 230 234 236 229 229 229 230 232 236 242 250 259 268
220 247 131 185 157 191 161 204 293 272 215 280 268 259 255 168 199 228 232 238 251 234 231 228 230 238 232 226 226 228 230 230 233 238 231 229 228 229 231 234 240 249 260 268
246 266 177 141 163 215 229 110 179 214 275 266 279 281 269 265 235 222 232 238 260 244 229 236 239 239 236 235 233 228 231 235 235 233 233 231 229 227 229 233 240 249 258 265
243 221 223 145 203 207 185 222 222 287 240 258 278 273 74 111 148 177 215 240 257 253 254 258 255 252 247 241 235 231 233 234 232 231 232 231 229 225 226 232 238 247 256 263
213 279 234 240 276 332 265 232 217 221 226 231 251 273 70 211 251 148 157 220 233 239 260 282 271 262 255 243 237 236 236 236 234 231 228 229 229 223 226 230 237 245 254 263
170 217 244 264 243 167 225 227 244 241 252 245 239 256 177 253 264 237 217 241 249 262 264 268 257 258 261 247 242 243 238 237 231 228 227 227 226 221 223 228 236 245 254 261
168 204 232 240 245 246 216 228 225 229 236 246 242 259 275 268 275 276 278 277 280 274 264 260 253 259 258 261 251 245 242 236 229 227 225 227 223 220 222 228 237 245 251 260
244 244 240 245 259 262 268 268 219 225 236 242 258 251 260 276 272 276 282 283 285 287 281 277 266 263 261 260 256 246 240 235 230 226 225 226 217 218 222 228 235 242 251 261
203 249 248 256 253 258 260 260 254 255 247 247 251 265 259 261 272 276 277 279 289 285 284 279 278 272 263 260 258 250 240 232 229 227 226 220 212 215 218 227 233 240 251 264
196 217 226 241 241 248 252 241 247 255 258 252 253 252 259 266 258 265 275 282 279 280 286 287 284 282 274 266 262 254 238 229 227 224 221 213 211 213 217 224 232 240 253 268
200 214 221 241 223 232 235 244 234 241 249 256 247 254 258 260 270 276 273 273 276 277 281 284 289 289 283 271 257 246 237 231 225 221 217 209 209 211 214 221 228 238 250 265
214 216 231 227 226 245 210 226 222 227 242 250 252 252 255 265 268 270 267 267 263 269 270 276 288 296 288 273 253 240 231 227 224 222 209 206 206 209 214 219 226 236 249 265
222 219 227 217 231 238 233 236 251 250 253 252 244 252 255 254 242 255 262 265 262 255 262 274 279 293 283 264 249 240 234 225 222 216 205 204 205 208 212 218 227 237 251 270
201 223 224 229 243 245 228 241 246 237 247 234 244 249 257 257 249 259 270 264 226 242 257 271 275 271 268 248 234 222 223 225 218 207 203 203 203 205 210 216 224 235 253 276
224 206 218 233 244 249 215 234 229 238 245 252 252 255 259 263 262 257 257 258 255 254 261 272 265 259 250 240 230 220 218 214 211 201 200 202 203 205 209 215 219 232 255 273
245 254 260 236 243 232 204 227 247 247 252 259 268 274 280 291 286 277 269 266 267 266 272 273 257 251 241 236 228 223 213 209 198 196 197 197 201 205 210 212 216 223 248 278
288 303 332 333 2 331 320 311 308 311 318 322 326 323 324 312 302 297 291 281 279 276 275 272 250 241 235 230 223 216 215 203 193 191 192 195 199 205 205 209 216 227 248 270
280 294 282 287 276 286 292 298 302 300 299 301 303 301 305 304 297 289 285 282 282 279 276 271 258 242 235 224 214 214 208 194 191 189 189 193 199 199 202 206 212 220 235 260
272 275 276 279 291 289 293 318 323 318 302 300 297 297 296 292 284 282 275 279 282 279 281 274 256 242 233 220 215 208 195 192 191 188 190 194 196 197 199 201 206 208 218 232
Wind_Speed_850mb
22 18 32 38 39 44 45 42 45 51 15 21 38 43 49 59 53 60 67 67 65 64 55 54 56 61 65 65 68 72 72 72 72 70 65 59 57 53 48 42 38 36 35 34
13 34 43 37 27 32 39 43 51 45 13 14 34 44 44 44 56 69 65 65 60 47 44 49 52 62 76 73 75 74 72 74 76 74 68 64 59 57 52 48 43 41 39 38
44 35 3 10 29 31 39 42 45 42 16 24 27 32 31 27 45 53 58 73 59 49 43 49 59 65 70 76 77 79 79 80 82 78 73 69 63 58 55 53 50 45 41 39
37 42 40 39 41 35 41 33 37 37 22 23 5 28 24 30 34 29 49 70 51 37 36 41 52 62 68 70 70 72 78 83 83 81 81 75 69 64 58 55 52 47 42 39
24 16 15 28 46 23 25 7 9 18 26 33 28 27 29 15 19 25 34 67 53 27 32 41 55 58 58 60 64 70 77 85 87 86 83 78 73 67 61 60 54 48 43 41
37 5 9 11 5 7 9 7 10 9 14 22 33 36 16 16 9 9 24 58 23 22 21 32 40 46 52 58 63 71 76 85 85 87 85 83 78 72 68 63 56 50 44 44
23 46 12 10 13 8 16 12 11 16 15 35 27 27 31 18 26 28 42 61 16 14 22 35 43 47 51 60 62 66 69 78 82 85 89 88 83 76 71 64 58 50 47 45
15 19 36 28 36 12 28 22 12 26 30 50 5 28 22 25 34 44 54 36 26 23 27 36 41 43 51 58 62 58 62 70 80 82 90 91 87 82 74 66 56 53 49 43
16 24 7 11 4 12 17 14 6 17 1 18 28 41 31 14 21 33 19 25 39 32 37 44 47 49 54 58 62 58 61 63 74 82 88 95 90 86 76 65 58 52 45 45
17 27 16 11 7 7 11 4 9 8 13 33 55 44 28 31 35 23 16 24 46 27 35 39 47 50 54 58 61 67 66 64 68 80 91 95 93 83 73 66 58 49 47 46
19 17 12 12 22 29 11 13 12 6 15 22 38 23 13 16 11 17 16 26 34 19 25 28 41 49 55 63 69 71 65 70 72 81 92 96 92 82 74 67 55 49 48 46
15 6 23 46 9 7 16 42 37 19 27 17 27 55 14 2 7 8 13 20 20 20 25 42 55 48 58 72 75 75 71 73 76 83 91 97 94 83 76 64 55 51 47 46
14 6 10 23 17 7 15 25 23 34 29 52 33 47 26 36 29 9 16 29 35 43 54 68 61 64 71 76 79 81 79 77 78 86 92 95 91 84 73 62 56 49 46 45
26 15 25 40 45 10 23 39 34 38 33 51 53 57 79 61 54 53 56 72 61 65 63 68 59 74 80 84 88 85 83 78 80 91 96 98 90 81 70 60 53 48 46 45
5 34 41 55 66 67 54 37 29 49 54 43 64 45 53 61 60 58 65 86 82 87 78 68 70 79 84 86 89 85 81 81 87 94 98 93 87 78 67 57 51 47 45 44
15 22 37 48 59 61 59 53 64 59 50 58 57 63 59 80 102 78 92 93 73 86 75 75 74 75 81 89 90 86 86 88 92 94 92 90 88 74 62 56 50 47 44 40
14 15 22 38 49 48 42 72 68 70 80 67 60 78 79 74 61 60 88 74 71 72 78 80 78 74 74 81 87 87 84 86 90 86 86 90 81 69 61 56 51 45 39 36
22 38 22 18 18 36 43 43 60 72 73 74 59 61 65 62 86 67 89 66 79 72 85 84 73 65 67 63 69 73 76 85 87 87 89 89 81 72 63 56 49 42 35 34
46 36 21 17 33 33 21 44 45 41 66 51 57 68 69 84 63 66 95 67 72 80 72 60 55 55 53 50 53 65 72 75 79 85 91 90 77 68 60 53 46 37 33 29
59 45 35 22 19 35 37 54 50 42 25 44 51 53 53 46 22 34 81 49 53 56 51 38 38 37 37 42 42 55 68 76 78 84 92 82 73 64 55 46 38 33 28 25
19 29 46 44 40 24 25 30 24 44 38 62 63 58 55 41 45 71 47 41 43 39 39 43 44 42 42 45 49 52 63 69 71 83 84 77 68 59 50 42 36 29 23 23
42 22 24 25 34 45 28 44 53 51 56 55 59 64 52 66 68 69 72 67 64 54 44 50 53 54 54 54 58 65 70 72 78 89 83 72 64 56 47 41 33 25 20 23
46 42 36 36 30 20 21 41 71 82 79 80 78 78 65 52 51 47 55 59 62 61 55 58 60 60 59 61 64 72 74 77 88 90 80 71 62 53 47 39 32 23 19 19
13 27 15 29 20 36 61 73 59 72 57 53 54 56 52 50 62 71 70 73 69 73 75 72 66 67 67 65 70 74 81 81 96 92 81 71 62 52 44 36 27 18 15 14
31 39 42 50 38 47 50 57 58 55 63 70 79 70 62 61 69 77 85 95 89 81 83 77 72 72 74 71 78 85 81 93 95 89 81 71 60 53 43 33 25 20 17 9
37 45 37 41 55 43 49 61 61 60 60 60 62 68 75 74 75 80 74 83 82 88 93 96 79 76 79 80 90 91 91 99 96 89 80 68 62 52 44 34 28 20 13 2
Wind_Direction_850mb
201 222 231 238 230 251 275 282 278 273 266 213 241 253 264 277 276 274 271 273 264 258 254 235 226 218 214 212 213 220 220 221 224 225 226 228 232 234 236 239 247 259 271 280
206 232 249 270 286 272 263 263 269 275 273 209 267 267 267 271 268 267 274 273 268 268 245 227 218 212 215 216 221 221 221 222 226 228 229 231 233 233 235 238 246 256 267 277
239 250 82 253 251 251 249 252 261 263 273 220 273 272 258 248 253 261 268 266 270 263 246 219 211 209 214 217 223 223 225 227 229 229 227 228 230 232 234 238 245 254 264 278
254 262 265 265 255 256 262 268 253 266 273 265 157 285 273 286 267 240 266 276 272 259 233 217 207 209 217 220 223 228 228 229 230 229 229 230 234 234 236 238 242 252 267 279
227 226 218 232 245 255 250 341 258 253 256 277 263 269 271 224 265 250 247 262 276 279 226 216 220 219 219 219 223 228 228 229 231 231 231 231 230 231 231 237 242 253 264 276
256 105 233 244 109 224 114 255 243 232 260 253 253 239 281 234 205 238 256 263 255 258 229 209 212 214 213 220 222 229 230 231 231 233 231 231 231 230 232 236 242 251 264 273
225 227 199 177 204 171 201 212 270 248 228 262 270 263 265 278 254 239 257 265 274 230 206 201 203 210 215 218 222 228 230 232 235 234 230 229 230 231 233 236 241 250 258 268
238 245 198 191 218 250 197 215 220 273 270 284 240 265 255 250 239 239 251 258 252 226 220 218 214 222 225 223 221 222 228 230 234 236 229 229 229 230 232 236 242 250 259 268
220 247 131 185 157 191 161 204 293 272 215 280 268 259 255 168 199 228 232 238 251 234 231 228 230 238 232 226 226 228 230 230 233 238 231 229 228 229 231 234 240 249 260 268
246 266 177 141 163 215 229 110 179 214 275 266 279 281 269 265 235 222 232 238 260 244 229 236 239 239 236 235 233 228 231 235 235 233 233 231 229 227 229 233 240 249 258 265
243 221 223 145 203 207 185 222 222 287 240 258 278 273 74 111 148 177 215 240 257 253 254 258 255 252 247 241 235 231 233 234 232 231 232 231 229 225 226 232 238 247 256 263
213 279 234 240 276 332 265 232 217 221 226 231 251 273 70 211 251 148 157 220 233 239 260 282 271 262 255 243 237 236 236 236 234 231 228 229 229 223 226 230 237 245 254 263
170 217 244 264 243 167 225 227 244 241 252 245 239 256 177 253 264 237 217 241 249 262 264 268 257 258 261 247 242 243 238 237 231 228 227 227 226 221 223 228 236 245 254 261
168 204 232 240 245 246 216 228 225 229 236 246 242 259 275 268 275 276 278 277 280 274 264 260 253 259 258 261 251 245 242 236 229 227 225 227 223 220 222 228 237 245 251 260
244 244 240 245 259 262 268 268 219 225 236 242 258 251 260 276 272 276 282 283 285 287 281 277 266 263 261 260 256 246 240 235 230 226 225 226 217 218 222 228 235 242 251 261
203 249 248 256 253 258 260 260 254 255 247 247 251 265 259 261 272 276 277 279 289 285 284 279 278 272 263 260 258 250 240 232 229 227 226 220 212 215 218 227 233 240 251 264
196 217 226 241 241 248 252 241 247 255 258 252 253 252 259 266 258 265 275 282 279 280 286 287 284 282 274 266 262 254 238 229 227 224 221 213 211 213 217 224 232 240 253 268
200 214 221 241 223 232 235 244 234 241 249 256 247 254 258 260 270 276 273 273 276 277 281 284 289 289 283 271 257 246 237 231 225 221 217 209 209 211 214 221 228 238 250 265
214 216 231 227 226 245 210 226 222 227 242 250 252 252 255 265 268 270 267 267 263 269 270 276 288 296 288 273 253 240 231 227 224 222 209 206 206 209 214 219 226 236 249 265
222 219 227 217 231 238 233 236 251 250 253 252 244 252 255 254 242 255 262 265 262 255 262 274 279 293 283 264 249 240 234 225 222 216 205 204 205 208 212 218 227 237 251 270
201 223 224 229 243 245 228 241 246 237 247 234 244 249 257 257 249 259 270 264 226 242 257 271 275 271 268 248 234 222 223 225 218 207 203 203 203 205 210 216 224 235 253 276
224 206 218 233 244 249 215 234 229 238 245 252 252 255 259 263 262 257 257 258 255 254 261 272 265 259 250 240 230 220 218 214 211 201 200 202 203 205 209 215 219 232 255 273
245 254 260 236 243 232 204 227 247 247 252 259 268 274 280 291 286 277 269 266 267 266 272 273 257 251 241 236 228 223 213 209 198 196 197 197 201 205 210 212 216 223 248 278
288 303 332 333 2 331 320 311 308 311 318 322 326 323 324 312 302 297 291 281 279 276 275 272 250 241 235 230 223 216 215 203 193 191 192 195 199 205 205 209 216 227 248 270
280 294 282 287 276 286 292 298 302 300 299 301 303 301 305 304 297 289 285 282 282 279 276 271 258 242 235 224 214 214 208 194 191 189 189 193 199 199 202 206 212 220 235 260
272 275 276 279 291 289 293 318 323 318 302 300 297 297 296 292 284 282 275 279 282 279 281 274 256 242 233 220 215 208 195 192 191 188 190 194 196 197 199 201 206 208 218 232